TimeCST,TemperatureF,Dew PointF,Humidity,Sea Level PressureIn,VisibilityMPH,Wind Direction,Wind SpeedMPH,Gust SpeedMPH,PrecipitationIn,Events,Conditions,WindDirDegrees,DateUTC
12:15 AM,16.2,5.0,62,29.88,10.0,South,8.1,-,N/A,,Mostly Cloudy,180,2014-01-18 06:15:00
12:35 AM,17.8,4.8,57,29.87,10.0,South,9.2,-,N/A,,Overcast,180,2014-01-18 06:35:00
12:55 AM,17.6,4.1,56,29.85,10.0,South,9.2,-,N/A,,Mostly Cloudy,170,2014-01-18 06:55:00
1:15 AM,19.6,5.4,54,29.84,10.0,South,9.2,-,N/A,,Mostly Cloudy,170,2014-01-18 07:15:00
1:35 AM,21.2,5.2,50,29.82,10.0,South,10.4,-,N/A,,Overcast,180,2014-01-18 07:35:00
1:55 AM,21.9,6.4,51,29.81,10.0,South,13.8,-,N/A,,Overcast,180,2014-01-18 07:55:00
2:15 AM,23.0,7.3,51,29.79,10.0,South,11.5,17.3,N/A,,Overcast,180,2014-01-18 08:15:00
2:35 AM,23.2,8.6,54,29.77,10.0,South,11.5,-,N/A,,Overcast,180,2014-01-18 08:35:00
2:55 AM,23.9,9.3,54,29.74,10.0,South,12.7,-,N/A,,Overcast,170,2014-01-18 08:55:00
3:15 AM,24.8,10.6,55,29.72,10.0,South,12.7,19.6,N/A,,Overcast,170,2014-01-18 09:15:00
3:35 AM,24.6,11.3,57,29.70,10.0,South,12.7,-,N/A,,Overcast,170,2014-01-18 09:35:00
3:55 AM,25.5,12.0,57,29.67,10.0,South,12.7,19.6,N/A,,Overcast,170,2014-01-18 09:55:00
4:15 AM,26.6,13.1,57,29.65,10.0,South,12.7,19.6,N/A,,Overcast,180,2014-01-18 10:15:00
4:35 AM,27.5,13.3,55,29.64,10.0,South,13.8,-,N/A,,Overcast,190,2014-01-18 10:35:00
4:55 AM,28.2,14.0,55,29.62,10.0,South,16.1,20.7,N/A,,Overcast,190,2014-01-18 10:55:00
5:15 AM,28.2,14.5,57,29.59,10.0,South,16.1,23.0,N/A,,Overcast,190,2014-01-18 11:15:00
5:35 AM,28.4,15.3,58,29.59,10.0,SSW,15.0,19.6,N/A,,Overcast,200,2014-01-18 11:35:00
5:55 AM,29.3,15.6,57,29.59,10.0,SSW,12.7,-,N/A,,Overcast,210,2014-01-18 11:55:00
6:15 AM,30.0,16.7,58,29.58,10.0,SSW,15.0,-,N/A,,Mostly Cloudy,210,2014-01-18 12:15:00
6:35 AM,30.7,18.0,59,29.57,10.0,SW,12.7,-,N/A,,Mostly Cloudy,230,2014-01-18 12:35:00
6:55 AM,31.1,18.3,59,29.56,10.0,SW,12.7,17.3,N/A,,Overcast,230,2014-01-18 12:55:00
7:15 AM,31.3,19.6,62,29.56,7.0,SW,12.7,-,N/A,Snow,Light Snow,230,2014-01-18 13:15:00
7:35 AM,30.9,20.3,65,29.56,10.0,SW,9.2,-,N/A,,Overcast,230,2014-01-18 13:35:00
7:55 AM,31.6,21.4,66,29.55,10.0,WSW,9.2,-,N/A,,Overcast,250,2014-01-18 13:55:00
8:15 AM,33.3,23.7,68,29.55,10.0,West,11.5,-,N/A,,Overcast,260,2014-01-18 14:15:00
8:35 AM,34.0,24.6,69,29.56,10.0,West,12.7,-,N/A,,Overcast,270,2014-01-18 14:35:00
8:55 AM,35.6,26.4,69,29.56,10.0,West,11.5,20.7,N/A,,Overcast,260,2014-01-18 14:55:00
9:15 AM,36.5,27.7,70,29.57,10.0,West,18.4,25.3,N/A,,Overcast,280,2014-01-18 15:15:00
9:35 AM,35.8,30.2,80,29.57,10.0,West,13.8,-,N/A,Rain,Light Rain,270,2014-01-18 15:35:00
9:55 AM,37.2,30.0,75,29.57,10.0,West,13.8,21.9,N/A,,Overcast,270,2014-01-18 15:55:00
10:15 AM,37.6,29.1,72,29.58,10.0,West,13.8,19.6,N/A,,Overcast,260,2014-01-18 16:15:00
10:35 AM,38.3,29.1,70,29.58,10.0,West,15.0,24.2,N/A,,Overcast,270,2014-01-18 16:35:00
10:55 AM,37.4,30.9,77,29.59,10.0,West,20.7,25.3,N/A,,Light Drizzle,270,2014-01-18 16:55:00
11:15 AM,36.5,32.0,84,29.59,10.0,West,12.7,-,N/A,Rain,Light Rain,280,2014-01-18 17:15:00
11:35 AM,36.7,32.5,85,29.58,10.0,West,15.0,19.6,N/A,Rain,Light Rain,270,2014-01-18 17:35:00
11:55 AM,36.7,32.4,84,29.57,10.0,West,13.8,-,N/A,Rain,Light Rain,260,2014-01-18 17:55:00
12:15 PM,34.0,31.3,90,29.59,2.5,WNW,21.9,29.9,0.01,Rain,Light Rain,300,2014-01-18 18:15:00
12:35 PM,33.4,28.6,82,29.60,10.0,WNW,16.1,31.1,0.01,,Overcast,300,2014-01-18 18:35:00
12:55 PM,32.4,27.5,82,29.61,10.0,WNW,24.2,33.4,0.01,,Light Drizzle,300,2014-01-18 18:55:00
1:15 PM,32.0,26.4,80,29.62,10.0,WNW,25.3,34.5,N/A,Rain,Light Rain,300,2014-01-18 19:15:00
1:35 PM,31.3,26.2,82,29.63,7.0,WNW,28.8,36.8,N/A,Rain,Freezing Rain,300,2014-01-18 19:35:00
1:55 PM,30.7,25.7,82,29.65,10.0,WNW,19.6,32.2,N/A,Snow,Light Snow,300,2014-01-18 19:55:00
2:15 PM,29.7,25.3,84,29.67,7.0,WNW,24.2,29.9,N/A,,Overcast,300,2014-01-18 20:15:00
2:35 PM,29.1,24.3,82,29.70,10.0,WNW,21.9,31.1,N/A,,Overcast,300,2014-01-18 20:35:00
2:55 PM,28.6,23.7,82,29.72,10.0,NW,23.0,38.0,N/A,Snow,Light Snow,310,2014-01-18 20:55:00
3:15 PM,27.1,22.3,82,29.75,10.0,NW,26.5,34.5,N/A,Snow,Light Snow,310,2014-01-18 21:15:00
3:35 PM,25.5,21.2,84,29.78,10.0,NW,25.3,33.4,N/A,,Overcast,320,2014-01-18 21:35:00
3:55 PM,24.4,20.1,84,29.81,10.0,NW,24.2,34.5,N/A,,Overcast,310,2014-01-18 21:55:00
4:15 PM,24.3,19.8,83,29.83,10.0,NW,24.2,32.2,N/A,,Overcast,320,2014-01-18 22:15:00
4:35 PM,23.5,18.5,81,29.86,10.0,NNW,23.0,33.4,N/A,,Overcast,330,2014-01-18 22:35:00
4:55 PM,23.2,18.3,82,29.89,10.0,NNW,20.7,26.5,N/A,,Overcast,340,2014-01-18 22:55:00
5:15 PM,22.5,16.7,79,29.91,10.0,NNW,21.9,31.1,N/A,,Overcast,340,2014-01-18 23:15:00
5:35 PM,22.1,16.0,77,29.93,10.0,NNW,24.2,32.2,N/A,,Overcast,330,2014-01-18 23:35:00
5:55 PM,21.2,14.9,77,29.96,10.0,NNW,20.7,29.9,N/A,,Overcast,340,2014-01-18 23:55:00
6:15 PM,21.2,14.9,77,29.97,10.0,NNW,19.6,25.3,N/A,,Overcast,340,2014-01-19 00:15:00
6:35 PM,21.2,14.9,77,29.98,10.0,NW,18.4,26.5,N/A,,Overcast,320,2014-01-19 00:35:00
6:55 PM,20.3,14.0,77,30.00,10.0,NNW,19.6,27.6,N/A,,Overcast,330,2014-01-19 00:55:00
7:15 PM,20.1,14.0,77,30.01,10.0,NNW,20.7,25.3,N/A,,Overcast,340,2014-01-19 01:15:00
7:35 PM,18.9,13.1,78,30.01,10.0,NNW,18.4,27.6,N/A,,Mostly Cloudy,330,2014-01-19 01:35:00
7:55 PM,18.3,13.1,80,30.02,10.0,NW,12.7,-,N/A,,Scattered Clouds,320,2014-01-19 01:55:00
8:15 PM,17.6,13.1,83,30.02,10.0,NW,4.6,-,N/A,,Clear,310,2014-01-19 02:15:00
8:35 PM,17.2,13.1,84,30.02,10.0,NW,8.1,-,N/A,,Clear,310,2014-01-19 02:35:00
8:55 PM,16.7,12.7,84,30.02,10.0,NW,5.8,-,N/A,,Clear,310,2014-01-19 02:55:00
9:15 PM,16.3,12.2,84,30.01,10.0,NW,5.8,-,N/A,,Clear,310,2014-01-19 03:15:00
9:35 PM,14.9,11.3,86,30.02,10.0,WNW,5.8,-,N/A,,Clear,300,2014-01-19 03:35:00
9:55 PM,15.1,11.3,85,30.03,10.0,West,3.5,-,N/A,,Clear,270,2014-01-19 03:55:00
10:15 PM,14.0,10.8,87,30.03,10.0,West,6.9,-,N/A,,Clear,280,2014-01-19 04:15:00
10:35 PM,13.8,10.9,88,30.03,10.0,West,6.9,-,N/A,,Clear,260,2014-01-19 04:35:00
10:55 PM,14.4,11.3,88,30.03,10.0,West,8.1,-,N/A,,Clear,270,2014-01-19 04:55:00
11:15 PM,14.5,11.3,87,30.03,10.0,West,6.9,-,N/A,,Clear,260,2014-01-19 05:15:00
11:35 PM,14.9,11.8,88,30.01,10.0,West,8.1,-,N/A,,Clear,260,2014-01-19 05:35:00
11:55 PM,15.3,12.0,87,30.00,10.0,WSW,6.9,-,N/A,,Clear,240,2014-01-19 05:55:00